Theta_e
334 336 336 337 337 337 336 336 334 334 332 332 331 331 331 330 328 327 327 327 327 327 327 327 327 325 325 325 325 325 326 325 324 324 322 321 321 321 320 320 319 318 317 315 314 313 312 310 309 306 302 296
330 332 334 335 335 335 335 334 333 332 331 330 330 329 329 328 327 326 326 326 326 326 326 326 326 325 325 326 326 326 324 323 322 321 320 320 320 320 319 318 317 317 315 314 312 311 310 309 307 305 302 295
323 327 330 332 332 332 333 333 332 331 330 330 329 328 327 326 325 325 325 324 324 324 323 323 324 325 325 324 324 324 322 321 320 319 319 318 318 317 317 317 316 315 314 312 310 309 308 305 303 302 298 294
314 323 324 327 329 329 330 330 329 329 328 327 325 325 323 321 318 318 317 319 317 321 321 322 318 322 323 323 323 322 321 320 319 318 317 316 314 313 313 314 313 313 312 311 309 308 305 303 300 294 293 293
310 315 322 322 324 325 326 326 327 327 324 321 320 317 315 311 305 304 307 307 306 314 307 316 317 321 322 322 321 320 320 319 318 317 316 314 312 311 309 307 307 308 309 308 308 306 302 299 292 293 292 292
308 310 318 313 315 315 320 321 321 319 313 314 309 312 307 301 303 300 300 302 309 303 306 309 315 318 320 320 319 318 318 317 316 315 314 312 311 309 306 302 292 294 300 304 304 302 299 292 291 291 291 291
308 309 309 308 311 312 315 314 311 308 308 304 304 301 299 299 297 297 298 299 302 303 310 308 313 316 317 317 317 317 316 315 314 313 312 310 308 305 302 292 290 290 289 291 297 296 292 290 290 290 290 291
307 307 307 308 308 309 309 307 305 303 301 301 299 298 297 295 295 296 297 306 308 308 301 305 310 311 311 310 308 307 305 310 311 310 309 305 302 297 293 289 290 290 289 289 290 290 290 289 289 290 290 289
305 305 304 305 305 305 304 303 302 301 299 297 296 295 295 293 294 294 297 297 297 294 294 292 291 291 291 291 292 296 288 289 292 290 288 290 292 289 290 289 289 290 289 290 289 289 289 289 289 288 289 288
305 304 304 303 303 303 301 301 300 298 297 295 294 294 293 295 293 295 295 294 293 291 290 289 288 288 287 288 289 291 287 287 288 288 288 289 289 288 288 288 288 289 290 288 288 288 288 288 288 287 287 287
303 303 303 303 301 302 300 298 298 297 296 294 293 293 294 293 293 293 292 292 290 289 289 288 287 286 286 286 287 288 287 287 287 287 287 287 287 287 287 287 287 287 287 287 287 287 287 287 287 287 287 287
302 302 301 301 302 301 300 298 297 296 295 294 293 293 293 293 292 292 291 291 289 288 287 288 287 286 286 286 286 287 287 287 286 286 286 287 286 287 286 287 286 286 287 286 286 286 286 286 286 286 286 287
301 300 299 299 299 299 301 297 296 295 294 293 293 293 293 293 292 290 291 290 289 288 288 287 287 285 285 286 286 287 286 286 286 286 286 287 286 285 285 286 286 286 286 285 285 286 286 286 286 286 286 286
300 300 299 298 298 298 299 296 294 293 293 293 292 292 292 293 292 291 290 290 288 288 287 286 286 286 285 285 286 286 286 286 285 285 285 285 285 285 285 286 288 286 285 285 285 286 286 286 286 285 286 286
301 299 299 298 297 296 296 295 293 293 293 292 292 293 292 292 292 291 290 289 288 287 287 286 286 285 284 284 285 285 285 285 285 285 285 285 284 285 285 285 286 285 285 284 285 285 285 285 286 286 286 286
300 299 298 297 296 295 295 294 292 292 292 293 291 292 292 291 291 291 289 289 288 288 287 286 285 284 284 284 284 285 285 285 285 285 284 284 284 284 285 285 285 285 284 284 284 284 285 285 285 285 285 285
300 299 297 296 295 295 294 293 292 292 292 292 291 291 292 291 291 291 290 289 289 290 286 286 285 284 285 284 285 284 284 285 284 284 285 285 285 284 284 284 284 285 284 284 284 284 285 285 285 285 285 285
299 298 296 296 294 294 293 293 292 292 292 292 291 291 291 291 291 291 289 289 288 288 287 286 285 284 284 283 284 285 285 284 283 284 284 284 285 288 284 283 283 283 284 283 283 284 284 283 284 284 285 285
299 297 296 295 293 292 293 292 292 292 291 291 290 290 291 290 291 290 289 289 289 287 287 286 285 284 283 284 284 284 283 283 282 283 284 284 283 282 283 283 285 283 283 283 284 284 284 284 285 284 284 284
298 296 295 294 294 292 292 292 292 291 291 291 290 290 290 290 290 290 289 289 288 287 286 286 286 284 284 284 284 284 283 283 283 283 284 284 282 282 283 283 282 282 282 283 284 283 283 283 286 283 283 284
297 295 293 293 292 291 291 292 292 291 290 290 290 289 289 290 290 289 289 288 288 288 286 286 286 284 284 284 283 283 282 283 284 283 284 283 284 281 281 282 282 282 282 283 283 283 282 283 284 283 283 285
297 295 293 292 292 292 291 291 291 290 290 289 289 289 289 289 290 289 289 288 288 287 287 286 285 284 283 284 283 282 282 282 282 282 282 282 281 281 282 281 281 282 282 283 283 283 282 282 282 283 283 286
295 293 291 290 291 290 290 290 290 290 289 289 289 289 289 289 290 290 288 288 288 287 287 285 285 284 283 284 282 282 282 282 282 282 281 281 281 282 281 282 281 282 282 282 282 283 282 282 282 282 285 284
293 292 291 290 289 289 290 290 290 289 290 289 289 290 289 289 289 289 289 288 287 287 287 285 285 284 283 283 283 282 282 282 282 282 281 281 282 282 283 282 281 281 281 281 280 283 281 282 282 284 284 283
293 292 290 290 290 291 291 290 290 290 290 290 290 289 289 289 289 289 288 288 287 286 287 285 284 284 283 283 283 282 283 282 282 282 281 283 283 281 280 280 280 281 281 280 280 279 280 282 282 285 283 281
294 294 293 292 291 292 291 290 290 289 290 290 290 289 289 289 288 288 288 288 287 287 286 285 284 284 283 283 283 282 282 281 284 283 282 282 279 280 279 280 280 281 279 279 278 279 280 280 280 283 281 281
294 294 294 293 292 292 290 290 290 290 289 289 289 288 288 288 288 288 287 287 287 286 286 285 285 284 284 283 283 283 281 282 282 282 282 281 281 280 280 281 281 280 279 279 278 279 278 277 278 283 279 280
294 293 291 289 290 290 289 288 289 287 287 287 287 287 287 287 288 287 287 287 287 287 286 285 285 284 283 283 283 283 282 282 282 281 281 281 281 282 280 278 280 281 279 279 279 279 278 276 278 279 278 277
292 291 289 288 288 288 287 287 286 286 285 287 287 287 286 287 287 287 287 287 287 287 286 285 285 284 284 283 283 283 282 282 283 282 282 282 281 280 281 279 278 280 280 279 281 280 277 276 279 277 277 277
292 292 290 288 288 287 287 286 286 287 287 285 287 288 288 287 288 288 287 287 287 287 286 285 285 284 284 283 283 283 282 282 281 281 281 281 281 279 279 280 279 278 281 280 280 279 277 278 278 277 275 276
292 291 291 290 290 290 289 289 288 290 289 288 289 289 288 287 287 287 287 286 286 286 286 285 285 284 284 283 283 283 282 281 282 282 282 282 280 280 281 280 279 280 279 279 279 279 279 281 279 278 277 275
Wind_Speed
11 11 12 12 14 13 14 14 14 14 14 14 14 14 13 13 12 13 12 12 12 12 12 12 12 12 12 12 12 12 12 12 12 12 11 11 11 11 11 11 12 12 12 13 12 12 12 12 12 11 8 5
10 10 12 11 12 12 12 12 13 13 14 14 14 14 13 12 12 12 12 12 12 13 12 13 12 13 13 13 13 13 13 13 12 12 12 11 11 11 12 12 12 12 12 12 12 12 12 12 12 11 9 5
6 10 11 11 11 10 11 11 13 13 12 12 12 12 10 10 10 10 11 12 12 12 12 12 12 13 13 13 13 13 13 13 13 13 12 12 11 11 12 12 12 12 12 12 12 12 11 11 10 11 6 4
4 7 8 9 10 10 10 11 10 12 11 11 11 10 10 10 7 7 6 8 7 11 11 9 6 11 13 13 13 13 13 13 13 12 12 12 11 11 11 11 11 12 12 12 12 11 11 10 10 6 5 4
4 4 7 7 8 9 10 10 10 11 11 10 10 9 9 8 5 4 5 5 4 6 4 7 8 11 12 13 13 13 13 12 12 12 12 11 12 12 12 11 11 11 12 11 11 11 10 9 6 5 5 5
4 4 6 5 5 5 7 8 9 8 6 7 6 9 8 5 5 5 4 4 6 4 3 4 7 9 11 12 12 12 12 12 12 12 11 12 12 12 12 11 6 6 9 11 11 10 10 6 5 5 5 5
5 5 4 5 5 5 6 6 5 5 6 5 6 6 6 5 5 5 4 4 4 4 6 5 7 7 10 11 11 12 12 12 12 12 12 13 13 12 12 7 6 6 6 6 9 8 6 5 5 5 5 5
6 5 5 6 6 6 6 5 5 5 5 6 6 6 5 6 5 4 5 6 7 6 4 5 6 7 8 9 9 10 7 10 11 12 13 13 12 8 5 6 6 6 6 6 5 5 5 5 5 5 5 5
7 6 6 6 6 6 6 6 6 6 6 5 6 6 6 5 4 4 4 4 5 5 5 4 4 3 4 3 4 6 5 5 5 6 6 6 6 5 5 5 5 4 5 5 5 5 5 5 4 5 5 5
7 7 7 7 7 6 6 7 6 6 6 6 6 6 6 6 6 5 5 4 5 4 5 4 4 3 3 3 3 3 5 5 4 5 5 5 5 5 5 5 4 3 3 4 4 5 4 5 5 5 5 5
7 8 7 7 7 8 7 6 7 7 6 6 6 6 7 8 7 6 6 6 5 5 5 5 4 4 2 3 3 2 5 5 4 5 5 5 5 4 4 4 3 3 3 3 3 3 4 4 5 5 5 5
8 7 7 7 7 7 7 7 7 7 7 6 7 6 7 6 7 7 7 6 6 5 4 5 4 3 4 3 3 3 4 6 5 5 5 4 4 4 3 4 3 3 3 3 3 3 3 4 4 5 5 5
8 7 7 7 8 8 7 8 7 7 7 7 7 6 7 7 8 6 6 7 6 5 5 4 4 4 3 3 3 4 5 4 5 5 4 4 3 3 3 2 3 2 3 3 3 3 4 4 4 4 5 5
9 9 9 9 9 8 7 8 7 7 7 7 8 7 7 7 7 8 8 7 6 7 6 5 4 3 3 4 3 4 5 3 5 5 3 3 3 4 3 2 2 3 3 3 3 3 4 4 4 3 4 4
11 9 11 10 8 7 9 8 7 7 7 7 7 8 8 7 7 7 6 7 7 6 6 5 5 4 3 4 4 4 4 2 3 3 3 4 4 4 4 3 2 3 4 3 4 3 4 4 4 4 4 3
11 12 12 10 8 9 8 7 8 7 7 8 7 7 7 7 7 7 6 8 7 7 6 6 5 4 4 4 4 3 4 3 2 3 2 2 2 2 3 3 2 2 5 5 4 3 4 3 4 4 3 3
13 11 10 10 10 9 8 8 8 8 8 8 7 7 8 8 7 7 8 7 8 7 6 6 5 4 3 4 5 3 3 3 3 3 3 2 2 2 2 2 3 2 4 5 4 4 4 3 4 3 3 3
11 12 11 9 9 9 9 9 9 9 8 8 7 8 8 8 8 7 7 8 7 7 7 6 6 5 4 4 3 3 3 4 3 3 3 3 2 2 2 4 3 3 5 4 3 5 3 3 3 3 3 3
14 11 11 11 10 10 10 9 9 8 8 8 8 7 8 8 8 8 8 8 9 8 7 7 6 5 5 4 4 4 3 4 3 3 4 3 4 3 4 4 3 4 4 3 5 4 3 3 2 3 3 2
13 12 11 10 9 9 9 9 9 9 9 8 7 8 8 8 8 8 8 8 8 8 7 7 7 6 5 5 5 5 4 3 4 3 3 1 3 5 2 3 3 3 3 2 3 2 3 2 2 3 2 3
10 10 11 10 10 10 9 9 9 7 7 7 8 8 8 8 8 8 8 8 8 8 8 7 7 6 6 5 5 5 4 3 3 4 3 1 0 1 4 3 3 2 2 2 2 2 3 2 2 3 3 2
12 10 9 8 8 8 10 9 8 7 7 8 8 8 8 9 9 9 9 9 8 8 8 7 7 6 6 6 6 5 4 4 3 3 3 4 2 2 4 4 3 2 1 1 3 3 3 3 3 2 3 2
9 7 6 5 6 7 8 7 7 8 8 8 8 9 10 10 9 9 9 9 9 9 8 8 7 7 7 6 6 6 5 5 4 3 2 4 4 2 3 4 3 1 0 2 3 4 4 3 3 2 2 3
9 8 9 10 6 6 8 8 8 8 10 9 10 11 11 11 10 10 10 10 9 8 8 8 8 8 7 7 7 7 7 7 7 7 6 5 6 6 3 3 1 1 1 3 5 4 4 4 3 3 3 4
13 14 11 8 11 14 12 12 11 10 11 11 11 12 11 11 10 10 10 9 9 9 9 8 8 8 7 7 7 7 8 6 6 5 5 6 3 4 3 2 2 0 1 4 2 3 5 5 4 3 2 4
14 14 16 17 18 15 13 12 13 13 11 12 10 10 10 10 9 10 10 9 9 9 10 9 9 9 10 9 8 7 5 5 5 5 6 6 4 1 3 2 0 1 2 4 2 3 1 4 3 2 3 4
15 13 10 9 6 10 7 6 6 4 5 5 7 7 8 8 8 10 9 10 10 10 10 10 10 9 9 9 8 8 8 7 8 8 9 8 7 5 1 2 0 1 0 6 3 2 4 1 1 0 1 2
8 7 5 3 4 4 5 5 4 4 4 6 6 7 8 8 9 10 10 10 10 9 10 11 11 9 9 10 9 9 9 10 10 9 8 7 5 7 5 2 0 1 1 4 8 2 2 2 1 0 1 2
10 9 7 6 6 6 7 5 6 5 5 8 7 7 8 10 9 11 11 12 13 12 12 11 10 11 10 10 10 9 9 10 11 11 9 9 7 8 9 6 2 0 2 1 2 7 5 3 0 3 2 1
13 13 13 12 10 10 9 8 10 14 16 12 13 16 12 11 13 13 12 12 12 11 11 12 11 11 11 10 9 9 9 7 5 7 9 10 8 7 4 8 6 3 0 0 1 0 1 3 4 5 3 2
13 13 13 17 17 16 17 17 15 12 9 13 13 10 12 12 11 11 12 11 11 11 11 11 10 11 11 10 9 8 7 8 10 9 9 6 6 6 6 7 6 10 6 3 3 3 3 5 4 5 7 4
Wind_Direction
184 182 199 188 190 193 190 189 187 186 187 186 184 183 177 175 176 174 166 160 155 150 146 143 138 136 134 130 127 125 121 116 109 104 102 100 97 93 89 84 80 77 72 68 66 62 59 57 55 54 54 50
185 185 191 192 189 190 191 190 184 185 187 188 185 182 175 173 173 168 160 157 153 149 145 140 139 138 135 132 128 123 119 116 113 111 108 105 102 97 93 90 86 81 78 74 69 65 60 57 55 52 53 50
187 189 192 187 188 187 182 179 183 181 188 184 182 178 166 162 161 161 156 155 151 144 142 143 141 138 134 132 130 128 126 124 121 119 115 110 105 100 95 92 89 86 82 79 74 67 63 59 55 51 51 45
180 185 188 185 183 182 180 180 179 180 176 176 171 161 150 149 148 138 134 129 133 142 142 137 133 140 138 137 134 131 127 123 121 118 114 110 105 99 95 89 83 81 80 78 73 70 66 63 55 46 39 38
174 186 174 172 171 177 176 185 177 173 165 159 148 136 129 117 109 110 107 99 104 103 111 135 146 142 140 134 132 128 124 120 117 113 109 104 98 92 84 74 66 63 66 64 63 63 62 63 57 49 45 38
170 182 168 163 168 167 172 176 171 162 147 135 130 127 122 122 122 119 118 116 115 119 110 117 123 131 133 130 127 124 120 116 110 104 98 91 84 78 70 63 55 43 42 48 51 51 54 52 50 45 45 45
173 177 162 167 164 166 167 168 150 138 135 132 134 130 132 129 125 129 127 126 128 125 117 111 112 124 128 126 122 119 113 107 98 92 86 81 76 66 58 52 47 43 40 31 35 38 39 45 38 39 40 44
178 176 165 168 166 164 159 147 141 139 139 139 139 140 137 134 136 132 138 141 128 113 99 95 90 94 93 84 73 70 71 76 82 83 80 78 71 60 55 54 44 42 35 35 28 31 35 38 33 34 34 34
185 175 165 173 171 165 158 147 145 146 145 147 145 146 143 143 138 142 141 126 111 106 100 87 70 61 66 69 78 81 82 76 74 72 77 69 69 67 71 69 53 52 46 35 32 33 26 32 30 31 28 26
178 165 179 180 178 165 166 157 156 153 154 154 157 153 150 143 140 148 137 131 127 118 117 111 106 93 85 86 94 94 110 102 99 87 83 86 81 70 72 73 67 57 60 47 39 36 28 27 28 25 22 21
177 187 184 179 177 171 177 165 161 168 165 166 162 158 159 153 157 153 147 142 142 139 132 133 131 134 125 135 133 150 127 98 87 92 90 88 86 79 76 68 60 58 53 54 57 45 40 32 30 26 21 17
187 185 181 184 181 187 175 167 176 173 173 161 167 168 167 157 158 158 154 156 153 154 139 148 145 140 140 137 129 112 104 107 89 87 87 93 86 84 77 87 70 64 57 51 52 62 47 38 33 30 22 19
188 181 183 182 187 191 179 181 180 173 164 169 170 172 168 158 159 162 157 159 161 144 151 144 143 148 140 127 116 104 80 99 105 93 96 99 105 96 102 105 107 103 82 70 60 67 53 42 33 27 23 20
186 188 187 192 193 186 182 187 175 167 176 175 170 176 176 171 165 170 165 158 156 156 157 152 144 136 142 126 109 97 100 89 105 120 107 108 120 124 132 129 143 126 115 88 73 65 62 45 34 26 24 18
194 183 196 193 187 182 191 178 168 176 176 175 182 179 172 170 169 163 159 157 159 157 152 154 152 151 141 117 97 97 107 88 116 121 141 154 152 150 147 148 154 143 114 97 71 56 60 46 38 30 18 19
193 193 196 188 183 192 186 170 179 179 178 182 184 175 174 171 168 163 163 159 159 159 156 158 157 153 143 133 111 103 116 116 106 123 126 122 126 145 146 136 107 99 97 76 68 57 56 42 44 33 18 20
196 193 189 185 191 187 179 180 177 182 185 183 180 175 176 173 167 169 165 166 161 157 155 153 154 156 152 139 128 112 123 119 111 108 116 123 127 128 147 106 61 65 69 64 42 54 50 46 38 29 27 20
195 194 189 190 187 183 179 184 183 188 183 179 177 176 176 172 172 168 166 158 157 151 153 156 161 162 154 140 131 123 126 137 144 140 137 153 123 101 89 79 46 57 48 31 48 55 46 53 34 25 35 22
200 192 189 186 186 185 185 183 187 184 178 178 177 171 176 176 174 168 165 164 156 158 157 161 164 167 159 138 132 138 156 146 149 148 153 149 114 90 75 78 60 68 70 41 33 30 41 44 31 36 40 15
196 192 191 188 185 183 182 182 188 184 183 178 169 174 173 177 174 168 168 165 160 156 165 167 169 164 142 145 138 148 153 149 156 158 141 140 150 116 94 95 57 45 61 41 45 35 47 46 54 54 40 34
192 188 189 189 185 183 179 186 188 182 172 171 174 175 174 175 175 172 170 168 166 159 164 164 161 153 148 146 149 154 162 164 163 159 148 114 95 151 141 113 115 59 49 28 48 52 55 43 60 61 49 43
189 187 178 178 179 177 183 188 183 173 170 179 176 172 180 176 176 174 172 169 168 163 161 157 154 145 149 150 150 155 162 171 160 156 157 126 55 110 120 116 108 86 21 46 47 55 50 21 47 57 66 64
177 162 157 147 160 177 186 183 178 171 177 179 175 185 182 176 178 175 172 171 168 161 158 153 152 154 159 153 154 157 163 162 168 162 158 141 108 77 85 118 115 107 6 52 51 59 40 35 27 28 78 60
168 164 171 174 160 176 197 190 181 183 186 179 188 189 180 180 179 175 174 171 167 160 157 157 160 158 158 159 157 166 172 180 181 176 156 157 136 122 90 56 73 31 83 78 65 70 51 50 44 59 67 55
177 178 178 181 193 200 192 189 186 188 193 192 194 185 183 179 179 173 169 167 164 164 157 158 154 155 164 163 168 177 190 180 177 178 168 152 139 131 108 54 5 12 114 113 68 26 57 50 35 46 68 44
185 190 188 185 193 193 184 181 184 195 194 196 190 185 182 177 172 169 170 167 167 163 163 160 165 168 171 170 177 180 167 169 177 173 172 164 103 31 131 130 258 273 129 32 125 126 2 11 5 57 61 42
193 191 191 194 187 181 174 191 200 188 176 170 179 178 175 171 170 168 168 168 170 167 172 169 165 175 168 174 167 165 176 178 184 187 184 187 154 122 49 124 180 8 185 140 135 121 87 9 40 329 6 3
186 176 156 126 108 128 131 161 148 125 131 151 151 175 175 180 173 169 171 171 172 174 174 172 175 167 171 176 176 176 176 183 188 186 193 193 193 149 129 151 75 37 355 133 142 65 105 180 114 31 301 331
159 140 128 110 89 96 88 83 130 135 171 176 172 167 187 188 172 176 175 176 181 177 177 176 173 172 176 174 179 176 183 188 193 190 190 183 176 187 149 171 155 65 37 60 274 142 111 70 64 211 216 55
163 167 163 156 154 163 174 176 176 192 192 174 182 196 187 182 186 181 180 180 179 179 174 178 178 175 172 178 177 184 190 187 176 191 190 195 186 179 195 144 149 125 88 102 48 353 132 160 169 181 217 131
168 171 177 181 185 185 186 190 203 199 179 185 196 184 181 186 180 182 176 178 178 180 180 177 177 178 178 177 178 178 175 187 197 193 196 178 191 188 153 140 136 156 163 103 27 30 47 60 53 116 129 198